MST,Max TemperatureF,Mean TemperatureF,Min TemperatureF,Max Dew PointF,MeanDew PointF,Min DewpointF,Max Humidity, Mean Humidity, Min Humidity, Max Sea Level PressureIn, Mean Sea Level PressureIn, Min Sea Level PressureIn, Max VisibilityMiles, Mean VisibilityMiles, Min VisibilityMiles, Max Wind SpeedMPH, Mean Wind SpeedMPH, Max Gust SpeedMPH,PrecipitationIn, CloudCover, Events, WindDirDegrees
2012-11-1,66,53,39,43,39,34,89,60,31,30.09,29.97,29.87,10,10,8,15,3,20,0.01,3,,226
2012-11-2,60,46,31,41,36,29,89,68,47,30.23,30.16,30.09,10,10,10,8,2,9,0.00,0,,288
2012-11-3,57,47,36,40,37,33,92,72,51,30.28,30.23,30.14,10,10,7,8,2,9,T,4,,286
2012-11-4,62,50,38,41,38,36,92,68,43,30.45,30.39,30.28,10,9,6,7,1,9,0.00,2,,246
2012-11-5,64,50,35,41,38,33,92,68,43,30.48,30.41,30.33,10,6,2,7,2,17,0.00,0,,269
2012-11-6,63,48,33,44,38,32,100,74,48,30.34,30.22,30.05,10,6,2,7,2,12,0.00,1,,267
2012-11-7,59,46,33,42,33,28,96,70,43,30.06,30.02,29.92,10,7,0,18,5,24,0.00,3,Fog,291
2012-11-8,48,42,35,36,32,27,85,73,60,29.89,29.73,29.65,10,10,10,14,6,17,T,5,Rain-Thunderstorm,281
2012-11-9,47,38,28,30,26,22,82,60,37,29.86,29.80,29.73,10,10,10,18,6,23,0.00,4,,268
2012-11-10,44,34,24,25,20,15,88,61,33,30.22,30.01,29.87,10,10,10,16,7,21,0.00,4,,271
2012-11-11,41,30,19,22,19,15,84,65,45,30.51,30.42,30.25,10,10,9,12,3,13,0.00,1,,43
2012-11-12,35,31,26,32,29,20,92,74,56,30.53,30.44,30.39,10,4,1,6,1,9,0.14,8,Snow,1
2012-11-13,39,36,33,36,33,30,96,91,85,30.48,30.38,30.25,10,4,2,10,4,18,0.04,8,Rain-Snow,265
2012-11-14,45,40,34,37,35,32,100,85,70,30.40,30.35,30.30,10,8,3,9,2,10,0.00,7,,256
2012-11-15,53,44,35,37,35,33,92,71,50,30.40,30.28,30.14,10,8,4,21,6,26,0.00,4,,158
2012-11-16,54,45,36,39,36,34,92,73,54,30.13,30.07,30.02,10,9,6,7,2,9,0.00,5,,333
2012-11-17,50,43,36,45,40,34,92,84,76,30.00,29.86,29.73,10,7,2,22,2,31,0.21,7,Rain,6
2012-11-18,50,43,35,38,32,29,76,61,46,30.09,30.03,29.84,10,10,10,24,4,30,T,3,Rain,204
2012-11-19,57,48,38,43,39,35,83,69,55,30.16,30.08,29.99,10,10,10,23,10,30,0.03,8,Rain,138
2012-11-20,60,55,49,42,41,39,71,60,49,29.99,29.88,29.77,10,10,10,28,14,38,T,6,,154
2012-11-21,54,44,34,45,37,27,93,75,56,30.32,29.99,29.75,10,10,7,26,8,31,0.14,5,Rain,241
2012-11-22,46,36,26,31,28,24,92,73,53,30.57,30.50,30.35,10,10,9,12,2,13,0.00,0,,290
2012-11-23,45,36,26,33,29,24,92,75,57,30.56,30.47,30.35,10,10,10,7,2,9,0.00,0,,270
2012-11-24,43,40,36,38,35,32,92,80,67,30.33,30.25,30.12,10,9,4,7,1,15,0.27,8,Rain,238
2012-11-25,50,40,30,38,30,25,92,67,42,30.30,30.21,30.08,10,9,4,20,7,24,0.04,3,Rain,299
2012-11-26,42,33,23,29,26,21,96,77,57,30.42,30.35,30.31,10,10,10,9,2,16,0.00,0,,268
2012-11-27,41,32,23,31,26,20,92,78,64,30.39,30.32,30.26,10,10,7,7,2,8,0.00,0,,248
2012-11-28,36,30,23,33,26,19,100,91,82,30.25,30.12,29.99,10,3,0,13,2,15,0.01,4,Fog-Rain,235
2012-11-29,46,37,27,39,32,27,96,83,70,30.09,29.99,29.80,10,4,0,9,3,12,0.01,5,Fog,294
2012-11-30,53,48,43,48,43,38,93,78,63,29.82,29.74,29.69,10,9,2,14,4,18,0.23,6,Rain,201